EW7349 Weather Reports


Display with metric or nautical units.
time (UTC)temp
F
wind
direction
speed
MPH
gust
MPH
rain 1hr
in
rain 24hr
in
rain mn
in
humidity
%
barometer
mb
20260902230617 77 86 0.0 0.0 0.00 0.11 0.11 93 1017.8
20260902230550 77 86 0.0 0.0 0.00 0.11 0.11 93 1018.1
20260902225612 77 86 0.0 0.0 0.00 0.11 0.11 93 1018.0
20260902225602 77 86 0.0 0.0 0.00 0.11 0.11 93 1017.7
20260902224613 77 86 0.0 0.0 0.00 0.11 0.11 94 1017.8
20260902224111 77 86 0.0 0.0 0.00 0.11 0.11 94 1018.0
20260902223830 77 86 0.0 0.0 0.00 0.11 0.11 94 1017.9
20260902223117 77 86 0.0 0.0 0.00 0.11 0.11 94 1017.8
20260902222842 77 86 0.0 0.0 0.00 0.11 0.11 93 1018.0
20260902222113 76 86 0.0 1.0 0.00 0.11 0.11 93 1017.7
20260902222048 77 86 0.0 1.0 0.00 0.11 0.11 93 1017.6
20260902221335 77 86 0.0 1.0 0.00 0.11 0.11 91 1017.7
20260902220614 77 86 0.0 1.0 0.00 0.11 0.11 91 1017.5
20260902220113 77 86 0.0 1.0 0.00 0.11 0.11 91 1017.2
20260902215613 77 86 0.0 1.0 0.00 0.11 0.11 91 1017.2
20260902215115 77 86 0.0 0.0 0.00 0.11 0.11 90 1017.3
20260902214611 77 86 0.0 0.0 0.00 0.11 0.11 90 1017.5
20260902214109 77 86 0.0 0.0 0.00 0.11 0.11 90 1017.6
20260902213606 78 86 0.0 0.0 0.00 0.11 0.11 90 1017.6
20260902213107 78 86 0.0 0.0 0.00 0.11 0.11 90 1017.8
20260902212606 78 86 0.0 1.0 0.00 0.11 0.11 89 1017.7
20260902212100 78 86 0.0 1.0 0.00 0.11 0.11 89 1017.8
20260902211552 78 86 0.0 2.0 0.01 0.11 0.11 89 1017.8
20260902211053 78 86 0.0 2.0 0.01 0.11 0.11 89 1018.0
20260902210550 78 86 0.0 1.0 0.01 0.11 0.11 88 1017.9
20260902210049 79 86 0.0 1.0 0.01 0.11 0.11 88 1018.1
20260902205546 79 86 0.0 1.0 0.03 0.11 0.11 88 1018.4
20260902205043 79 41 0.0 1.0 0.04 0.11 0.11 88 1018.4
20260902204544 80 92 0.0 1.0 0.05 0.11 0.11 87 1018.2
20260902204041 80 325 0.0 0.0 0.06 0.11 0.11 87 1018.3
20260902203805 80 325 0.0 0.0 0.09 0.11 0.11 86 1018.2
20260902203038 80 325 0.0 1.0 0.11 0.11 0.11 85 1017.8
20260902202535 81 49 0.0 1.0 0.11 0.11 0.11 85 1017.4
20260902202033 82 49 0.0 1.0 0.11 0.11 0.11 83 1017.4
20260902201755 82 337 0.0 1.0 0.10 0.10 0.10 82 1017.8
20260902201027 83 337 0.0 3.0 0.10 0.10 0.10 81 1017.7
20260902200525 83 23 1.0 3.0 0.10 0.10 0.10 80 1018.1
20260902200242 84 103 0.0 1.0 0.10 0.10 0.10 77 1018.2
20260902195524 85 103 1.0 3.0 0.08 0.08 0.09 76 1018.3
20260902195021 86 105 1.0 6.0 0.07 0.07 0.07 74 1018.4
20260902194517 87 98 1.0 6.0 0.06 0.06 0.06 73 1018.8
20260902194017 88 37 1.0 2.0 0.05 0.05 0.05 76 1019.0
20260902193517 88 64 0.0 2.0 0.02 0.02 0.03 72 1018.4
20260902193236 88 144 1.0 4.0 0.00 0.00 0.00 66 1018.1
20260902192512 89 144 2.0 7.0 0.00 0.00 0.00 62 1018.3
20260902192012 92 159 3.0 7.0 0.00 0.00 0.00 58 1018.3
20260902191506 94 317 3.0 6.0 0.00 0.00 0.00 60 1017.9
20260902191000 94 155 2.0 6.0 0.00 0.00 0.00 60 1017.5
20260902190454 94 146 2.0 5.0 0.00 0.00 0.00 60 1017.2
20260902190436 92 121 2.0 4.0 0.00 0.00 0.00 63 1017.2
20260902185442 92 153 2.0 4.0 0.00 0.00 0.00 63 1017.3
20260902184936 90 142 2.0 4.0 0.00 0.00 0.00 63 1017.5
20260902184431 91 120 2.0 4.0 0.00 0.00 0.00 63 1017.6
20260902183924 92 130 2.0 4.0 0.00 0.00 0.00 60 1017.8
20260902183419 93 144 1.0 4.0 0.00 0.00 0.00 58 1017.8
20260902182912 95 110 1.0 4.0 0.00 0.00 0.00 56 1017.8
20260902182629 95 153 1.0 2.0 0.00 0.00 0.00 56 1017.7
20260902181901 95 81 1.0 3.0 0.00 0.00 0.00 56 1017.7
20260902181354 95 159 1.0 3.0 0.00 0.00 0.00 55 1017.6
20260902180848 97 120 1.0 3.0 0.00 0.00 0.00 54 1017.6
20260902180343 96 122 2.0 3.0 0.00 0.00 0.00 55 1017.7
20260902180104 96 163 1.0 7.0 0.00 0.00 0.00 57 1017.8
20260902175330 95 0 1.0 7.0 0.00 0.00 0.00 57 1017.9
20260902174825 93 21 1.0 2.0 0.00 0.00 0.00 61 1017.9
20260902174318 92 120 1.0 3.0 0.00 0.00 0.00 61 1018.0
20260902173812 93 36 1.0 4.0 0.00 0.00 0.00 59 1017.9
20260902173306 94 191 1.0 4.0 0.00 0.00 0.00 58 1018.0
20260902173026 95 72 1.0 3.0 0.00 0.00 0.00 58 1018.1
20260902172254 95 236 1.0 2.0 0.00 0.00 0.00 56 1018.1
20260902171748 93 88 0.0 2.0 0.00 0.00 0.00 61 1018.1
20260902171242 93 88 1.0 3.0 0.00 0.00 0.00 60 1018.2
20260902170738 92 326 1.0 3.0 0.00 0.00 0.00 59 1018.3
20260902170231 92 287 1.0 3.0 0.00 0.00 0.00 61 1018.3
20260902165724 93 236 1.0 3.0 0.00 0.00 0.00 63 1018.2
20260902165218 92 119 1.0 4.0 0.00 0.00 0.00 62 1018.3
20260902164712 92 261 1.0 4.0 0.00 0.00 0.00 61 1018.2
20260902164206 93 228 1.0 3.0 0.00 0.00 0.00 61 1018.2
20260902163701 92 265 1.0 3.0 0.00 0.00 0.00 61 1018.3
20260902163153 92 206 1.0 4.0 0.00 0.00 0.00 62 1018.3
20260902162648 91 261 1.0 4.0 0.00 0.00 0.00 62 1018.3
20260902162404 91 355 1.0 3.0 0.00 0.00 0.00 62 1018.4
20260902161637 92 108 1.0 3.0 0.00 0.00 0.00 61 1018.3
20260902161130 91 108 1.0 3.0 0.00 0.00 0.00 64 1018.3
20260902160625 91 264 1.0 3.0 0.00 0.00 0.00 63 1018.3
20260902160119 90 166 1.0 4.0 0.00 0.00 0.00 64 1018.3
20260902155612 89 166 0.0 4.0 0.00 0.00 0.00 67 1018.2
20260902155106 89 258 0.0 2.0 0.00 0.00 0.00 65 1018.2
20260902154600 88 258 1.0 3.0 0.00 0.00 0.00 69 1018.2
20260902154054 88 238 1.0 4.0 0.00 0.00 0.00 68 1018.2
20260902153549 88 66 1.0 4.0 0.00 0.00 0.00 71 1018.2
20260902153043 87 148 0.0 2.0 0.00 0.00 0.00 69 1018.2
20260902152539 87 166 1.0 3.0 0.00 0.00 0.00 70 1018.3
20260902152030 87 300 1.0 3.0 0.00 0.00 0.00 70 1018.3
20260902151525 86 254 2.0 3.0 0.00 0.00 0.00 70 1018.3
20260902151018 85 267 2.0 4.0 0.00 0.00 0.00 72 1018.5
20260902150729 85 287 1.0 4.0 0.00 0.00 0.00 74 1018.4
20260902150006 85 262 1.0 3.0 0.00 0.00 0.00 72 1018.4
20260902145500 85 263 0.0 2.0 0.00 0.00 0.00 72 1018.4
20260902145000 84 114 1.0 3.0 0.00 0.00 0.00 74 1018.5
20260902144500 84 44 1.0 3.0 0.00 0.00 0.00 74 1018.4
20260902144001 84 115 0.0 2.0 0.00 0.00 0.00 74 1018.3
20260902143459 84 80 0.0 2.0 0.00 0.00 0.00 75 1018.3
20260902143222 83 76 0.0 1.0 0.00 0.00 0.00 75 1018.2
20260902142722 83 76 0.0 3.0 0.00 0.00 0.00 78 1018.3
20260902141957 82 76 0.0 3.0 0.00 0.00 0.00 79 1018.3
20260902141458 82 30 0.0 2.0 0.00 0.00 0.00 80 1018.3
20260902141438 81 30 0.0 2.0 0.00 0.00 0.00 79 1018.2
20260902140454 81 43 0.0 2.0 0.00 0.00 0.00 81 1018.2
20260902135951 81 44 0.0 4.0 0.00 0.00 0.00 81 1018.2
20260902135451 80 44 0.0 4.0 0.00 0.00 0.00 82 1018.2
20260902135213 79 85 0.0 1.0 0.00 0.00 0.00 85 1018.1
20260902134451 78 85 0.0 1.0 0.00 0.00 0.00 86 1018.2
20260902134218 78 48 0.0 2.0 0.00 0.00 0.00 86 1018.2
20260902133452 78 48 0.0 2.0 0.00 0.00 0.00 86 1018.2
20260902132947 78 51 0.0 1.0 0.00 0.00 0.00 87 1018.1
20260902132448 78 51 0.0 1.0 0.00 0.00 0.00 88 1018.0
20260902131948 76 51 0.0 1.0 0.00 0.00 0.00 91 1018.1
20260902131448 76 51 0.0 2.0 0.00 0.00 0.00 91 1018.1
20260902130948 76 51 0.0 2.0 0.00 0.00 0.00 91 1018.1
20260902130447 76 38 0.0 2.0 0.00 0.00 0.00 91 1018.1
20260902125948 75 77 0.0 0.0 0.00 0.00 0.00 91 1018.0
20260902125449 75 77 0.0 0.0 0.00 0.00 0.00 92 1018.0
20260902124948 75 78 0.0 0.0 0.00 0.00 0.00 92 1018.0
20260902124448 75 77 0.0 0.0 0.00 0.00 0.00 91 1017.9
20260902123949 75 77 0.0 0.0 0.00 0.00 0.00 91 1018.0
20260902123448 74 77 0.0 0.0 0.00 0.00 0.00 91 1018.1
20260902122948 74 77 0.0 0.0 0.00 0.00 0.00 91 1018.1
20260902122448 74 77 0.0 0.0 0.00 0.00 0.00 91 1018.1
20260902121947 74 77 0.0 0.0 0.00 0.00 0.00 90 1018.2
20260902121710 74 77 0.0 0.0 0.00 0.00 0.00 90 1018.1
20260902120946 74 77 0.0 0.0 0.00 0.00 0.00 90 1018.1
20260902120446 74 77 0.0 0.0 0.00 0.00 0.00 90 1018.1
20260902115947 74 77 0.0 0.0 0.00 0.00 0.00 89 1018.0
20260902115449 73 78 0.0 0.0 0.00 0.00 0.00 89 1018.0
20260902114947 73 78 0.0 0.0 0.00 0.00 0.00 89 1017.9
20260902114445 73 78 0.0 0.0 0.00 0.00 0.00 89 1017.9
20260902113947 73 77 0.0 0.0 0.00 0.00 0.00 89 1017.8
20260902113443 74 78 0.0 0.0 0.00 0.00 0.00 89 1017.8
20260902113157 74 78 0.0 0.0 0.00 0.00 0.00 89 1017.9
20260902112439 74 78 0.0 0.0 0.00 0.00 0.00 89 1017.9
20260902111939 74 78 0.0 0.0 0.00 0.00 0.00 89 1017.9
20260902111703 74 77 0.0 0.0 0.00 0.00 0.00 88 1017.9
20260902110937 74 78 0.0 0.0 0.00 0.00 0.00 88 1017.9
20260902110438 74 77 0.0 0.0 0.00 0.00 0.00 88 1017.9
20260902105936 74 78 0.0 0.0 0.00 0.00 0.00 88 1017.9
20260902105436 74 78 0.0 0.0 0.00 0.00 0.00 88 1017.8
20260902104936 74 78 0.0 0.0 0.00 0.00 0.00 88 1017.8
20260902104429 74 78 0.0 0.0 0.00 0.00 0.00 88 1017.8
20260902103923 74 78 0.0 0.0 0.00 0.00 0.00 88 1017.8
20260902103417 74 78 0.0 0.0 0.00 0.00 0.00 87 1017.8
20260902102912 74 78 0.0 0.0 0.00 0.00 0.00 87 1017.7
20260902102405 74 78 0.0 0.0 0.00 0.00 0.00 87 1017.6
20260902101900 75 78 0.0 0.0 0.00 0.00 0.00 87 1017.6
20260902101353 75 78 0.0 0.0 0.00 0.00 0.00 87 1017.6
20260902100846 75 78 0.0 0.0 0.00 0.00 0.00 87 1017.6
20260902100341 75 77 0.0 0.0 0.00 0.00 0.00 87 1017.5
20260902095835 75 77 0.0 0.0 0.00 0.00 0.00 86 1017.5
20260902095329 75 78 0.0 0.0 0.00 0.00 0.00 86 1017.5
20260902094823 75 78 0.0 0.0 0.00 0.00 0.00 86 1017.4
20260902094317 75 78 0.0 0.0 0.00 0.00 0.00 86 1017.4
20260902093810 75 77 0.0 0.0 0.00 0.00 0.00 86 1017.4
20260902093304 76 77 0.0 0.0 0.00 0.00 0.00 86 1017.4
20260902092757 76 77 0.0 0.0 0.00 0.00 0.00 86 1017.4
20260902092251 76 78 0.0 0.0 0.00 0.00 0.00 86 1017.4
20260902091745 76 78 0.0 0.0 0.00 0.00 0.00 86 1017.3
20260902091732 76 78 0.0 0.0 0.00 0.00 0.00 86 1017.2
20260902090740 76 78 0.0 0.0 0.00 0.00 0.00 86 1017.2
20260902090240 76 77 0.0 0.0 0.00 0.00 0.00 86 1017.1
20260902090001 76 77 0.0 0.0 0.00 0.00 0.00 86 1017.1
20260902085236 76 78 0.0 0.0 0.00 0.00 0.00 86 1017.1
20260902084954 76 78 0.0 1.0 0.00 0.00 0.00 86 1017.1
20260902084551 76 77 0.0 1.0 0.00 0.00 0.00 86 1017.1
20260902084450 76 78 0.0 1.0 0.00 0.00 0.00 85 1017.1
20260902083455 76 77 0.0 1.0 0.00 0.00 0.00 85 1017.1
20260902082729 76 77 0.0 1.0 0.00 0.00 0.00 85 1017.2
20260902082229 76 78 0.0 0.0 0.00 0.00 0.00 85 1017.2
20260902081946 76 78 0.0 1.0 0.00 0.00 0.00 85 1017.1
20260902081226 76 78 0.0 1.0 0.00 0.00 0.00 85 1017.1
20260902080949 76 77 0.0 0.0 0.00 0.00 0.00 85 1017.2
20260902080225 76 77 0.0 0.0 0.00 0.00 0.00 84 1017.3
20260902075723 76 78 0.0 0.0 0.00 0.00 0.00 84 1017.3
20260902075222 76 77 0.0 0.0 0.00 0.00 0.00 84 1017.3
20260902074944 76 78 0.0 1.0 0.00 0.00 0.00 84 1017.2
20260902074223 76 77 0.0 1.0 0.00 0.00 0.00 83 1017.2
20260902073945 76 77 0.0 1.0 0.00 0.00 0.00 84 1017.2
20260902073217 77 77 0.0 1.0 0.00 0.00 0.00 83 1017.2
20260902072711 77 78 0.0 0.0 0.00 0.00 0.00 83 1017.2
20260902072211 77 77 0.0 0.0 0.00 0.00 0.00 83 1017.2
20260902071712 77 77 0.0 1.0 0.00 0.00 0.00 83 1017.2
20260902071210 77 78 0.0 1.0 0.00 0.00 0.00 84 1017.1
20260902070711 77 77 0.0 0.0 0.00 0.00 0.00 84 1017.1
20260902070700 77 77 0.0 1.0 0.00 0.00 0.00 83 1017.0
20260902065710 77 77 0.0 1.0 0.00 0.00 0.00 83 1016.9
20260902065211 77 78 0.0 0.0 0.00 0.00 0.00 82 1016.8
20260902064710 77 77 0.0 1.0 0.00 0.00 0.00 81 1016.9
20260902064208 77 78 0.0 1.0 0.00 0.00 0.00 81 1016.8
20260902063708 77 78 0.0 1.0 0.00 0.00 0.00 82 1016.8
20260902063427 78 78 0.0 2.0 0.00 0.00 0.00 82 1016.8
20260902062708 78 77 0.0 2.0 0.00 0.00 0.00 82 1016.7
20260902062207 78 78 0.0 2.0 0.00 0.00 0.00 82 1016.6
20260902061707 78 78 1.0 2.0 0.00 0.00 0.00 83 1016.6
20260902061207 78 67 0.0 1.0 0.00 0.00 0.00 84 1016.5
20260902060705 78 67 0.0 3.0 0.00 0.00 0.00 84 1016.5
20260902060208 78 69 0.0 3.0 0.00 0.00 0.00 83 1016.6
20260902055921 78 345 0.0 2.0 0.00 0.00 0.00 83 1016.5
20260902055412 78 165 0.0 2.0 0.00 0.00 0.00 84 1016.6
20260902054646 78 141 0.0 2.0 0.00 0.00 0.00 84 1016.6
20260902054407 78 191 0.0 2.0 0.00 0.00 0.00 84 1016.6
20260902053903 78 236 1.0 4.0 0.00 0.00 0.00 85 1016.5
20260902053128 78 257 1.0 4.0 0.00 0.00 0.00 85 1016.4
20260902052628 78 42 0.0 4.0 0.00 0.00 0.00 85 1016.4
20260902052351 78 250 0.0 2.0 0.00 0.00 0.00 84 1016.4
20260902051626 78 211 0.0 4.0 0.00 0.00 0.00 84 1016.3
20260902051350 78 285 0.0 4.0 0.00 0.00 0.00 84 1016.3
20260902050623 78 231 0.0 1.0 0.00 0.00 0.00 85 1016.4
20260902050347 78 151 0.0 0.0 0.00 0.00 0.00 85 1016.5
20260902045853 78 151 0.0 1.0 0.00 0.00 0.00 85 1016.5
20260902045119 78 151 0.0 1.0 0.00 0.00 0.00 85 1016.5
20260902044618 78 51 0.0 1.0 0.00 0.00 0.00 86 1016.5
20260902044118 78 51 0.0 1.0 0.00 0.00 0.00 86 1016.4
20260902043841 78 15 0.0 1.0 0.00 0.00 0.00 86 1016.4
20260902043336 78 232 0.0 1.0 0.00 0.00 0.00 86 1016.5
20260902042845 79 34 0.0 0.0 0.00 0.00 0.00 86 1016.5
20260902042117 79 32 0.0 0.0 0.00 0.00 0.00 86 1016.6
20260902041616 79 32 0.0 0.0 0.00 0.00 0.00 86 1016.7
20260902041111 79 57 0.0 0.0 0.00 0.00 0.00 86 1016.6
20260902041058 79 57 0.0 0.0 0.00 0.00 0.00 86 1016.5
20260902040112 79 57 0.0 0.0 0.00 0.00 0.00 86 1016.5
20260902035605 79 57 0.0 0.0 0.00 0.00 0.00 86 1016.4
20260902035325 79 57 0.0 0.0 0.00 0.00 0.00 86 1016.2
20260902034553 79 57 0.0 0.0 0.00 0.00 0.00 86 1016.2
20260902034047 79 57 0.0 0.0 0.00 0.00 0.00 86 1016.1
20260902033541 79 57 0.0 0.0 0.00 0.00 0.00 86 1016.0
20260902033300 79 57 0.0 0.0 0.00 0.00 0.00 86 1015.9
20260902032529 80 57 0.0 0.0 0.00 0.00 0.00 86 1015.9
20260902032023 80 57 0.0 0.0 0.00 0.00 0.00 85 1015.8
20260902031517 80 57 0.0 0.0 0.00 0.00 0.00 85 1015.8
20260902031011 80 57 0.0 0.0 0.00 0.00 0.00 85 1015.8
20260902030505 80 57 0.0 0.0 0.00 0.00 0.00 84 1015.7
20260902025959 80 57 0.0 0.0 0.00 0.00 0.00 84 1015.7
20260902025453 80 57 0.0 0.0 0.00 0.00 0.00 84 1015.9
20260902024947 81 57 0.0 0.0 0.00 0.00 0.00 84 1016.0
20260902024441 81 57 0.0 0.0 0.00 0.00 0.00 84 1016.1
20260902024156 81 57 0.0 0.0 0.00 0.00 0.00 83 1016.2
20260902023429 81 57 0.0 0.0 0.00 0.00 0.00 83 1016.0
20260902023148 81 57 0.0 0.0 0.00 0.00 0.00 83 1016.0
20260902022417 81 57 0.0 0.0 0.00 0.00 0.00 83 1016.0
20260902021912 82 57 0.0 0.0 0.00 0.00 0.00 83 1015.9
20260902021404 82 57 0.0 0.0 0.00 0.00 0.00 83 1015.9
20260902020905 82 57 0.0 0.0 0.00 0.00 0.00 83 1015.7
20260902020402 82 57 0.0 0.0 0.00 0.00 0.00 83 1015.7
20260902015901 82 57 0.0 0.0 0.00 0.00 0.00 82 1015.7
20260902015403 82 57 0.0 0.0 0.00 0.00 0.00 82 1015.7
20260902014900 82 57 0.0 0.0 0.00 0.00 0.00 82 1015.7
20260902014401 83 57 0.0 0.0 0.00 0.00 0.00 82 1015.6
20260902013859 83 57 0.0 0.0 0.00 0.00 0.00 81 1015.5
20260902013400 83 57 0.0 0.0 0.00 0.00 0.00 81 1015.5
20260902012857 83 57 0.0 0.0 0.00 0.00 0.00 81 1015.4
20260902012359 83 57 0.0 0.0 0.00 0.00 0.00 80 1015.2
20260902011900 83 57 0.0 0.0 0.00 0.00 0.00 80 1015.2
20260902011359 84 57 0.0 0.0 0.00 0.00 0.00 80 1015.1
20260902010858 84 57 0.0 0.0 0.00 0.00 0.00 80 1015.1
20260902010358 84 57 0.0 0.0 0.00 0.00 0.00 80 1015.0
20260902005859 84 57 0.0 0.0 0.00 0.00 0.00 80 1015.0
20260902005358 84 57 0.0 0.0 0.00 0.00 0.00 79 1015.0
20260902004853 85 57 0.0 0.0 0.00 0.00 0.00 79 1014.9
20260902004843 85 57 0.0 0.0 0.00 0.00 0.00 79 1014.8
20260902003852 85 57 0.0 1.0 0.00 0.00 0.00 79 1014.6
20260902003352 85 57 0.0 1.0 0.00 0.00 0.00 78 1014.5
20260902003113 86 181 0.0 0.0 0.00 0.00 0.00 78 1014.4
20260902002352 86 181 0.0 0.0 0.00 0.00 0.00 77 1014.3
20260902001851 86 181 0.0 0.0 0.00 0.00 0.00 77 1014.3
20260902001353 86 181 0.0 0.0 0.00 0.00 0.00 77 1014.3
20260902000854 86 181 0.0 0.0 0.00 0.00 0.00 76 1014.2
20260902000349 87 181 0.0 0.0 0.00 0.00 0.00 76 1014.3
20260901235848 87 181 0.0 0.0 0.00 0.00 0.00 76 1014.2
20260901235348 87 181 0.0 0.0 0.00 0.00 0.00 76 1014.2
20260901234849 87 181 0.0 0.0 0.00 0.00 0.00 76 1014.2
20260901234348 88 181 0.0 0.0 0.00 0.00 0.00 75 1014.3
20260901233849 88 181 0.0 0.0 0.00 0.00 0.00 75 1014.2
20260901233349 88 181 0.0 1.0 0.00 0.00 0.00 75 1014.3
20260901232850 88 181 0.0 1.0 0.00 0.00 0.00 75 1014.3
20260901232349 89 180 0.0 0.0 0.00 0.00 0.00 74 1014.3
20260901231842 89 180 0.0 0.0 0.00 0.00 0.00 74 1014.3
20260901231335 89 180 0.0 0.0 0.00 0.00 0.00 74 1014.4
20260901230829 89 180 0.0 0.0 0.00 0.00 0.00 73 1014.4